Orbital Elements at Epoch 2459200.5 (2020-Dec-17.0) TDB
Reference: JPL 14 (heliocentric ecliptic J2000)
Element | Value | Uncertainty (1-sigma) | Units |
e | .06895432591328265 | 4.5368e-08 | |
a | 2.655344861311061 | 2.0644e-08 | au |
q | 2.472247346332058 | 1.2393e-07 | au |
i | 15.01999374863274 | 5.6903e-06 | deg |
node | 145.8388683471407 | 1.8481e-05 | deg |
peri | 328.5367827921854 | 4.5002e-05 | deg |
M | 341.1176130585786 | 4.2347e-05 | deg |
tp | 2459283.396122811617 (2021-Mar-09.89612281) | 0.00018623 | TDB |
period | 1580.446598449779 4.33 | 1.8431e-05 5.046e-08 | d yr |
n | .2277837165476613 | 2.6564e-09 | deg/d |
Q | 2.838442376290065 | 2.2068e-08 | au |
|
| | Orbit Determination Parameters
Additional Information
|